Notices

What's New in latest Release from April 7th, 2021:

- Updated Glossary, including Speed of Maximum Gust, and Total Hourly Precipitation

- Updated national and regional climate services offices contacts and prices information

- Addition of station inventory lists for 1981-2010, 1971-2000, and 1961-1990 Normals.

If you haven't already, please take our survey and provide feedback about our website: https://eccc.sondage-survey.ca/f/LanguageSelection.aspx?s=442ca660-fcf1-47c0-95a9-59707d6fd709

Hourly Data Report for September 22, 2017

VICTORIA UNIVERSITY CS
BRITISH COLUMBIA

48°27'25.200" N
123°18'16.600" W
60.10 m
1018598
71783
WYJ

Download Data

Hourly Data (September 2017)
Hourly Data Report for September 22, 2017
TIME
LST
Temp Definition
°C
Dew Point Definition
°C
Rel Hum Definition
%
Precip. Amount Definition
mm

Wind Dir Definition
10's deg

Wind Spd Definition
km/h
Visibility Definition
km
Stn Press Definition
kPa
Hmdx Definition


Wind Chill Definition


Weather Definition


00:00 11.8 8.5 80 0.0 13 1   100.88     LegendNANA
01:00 12.2 8.2 77 0.0 32 4   100.90     LegendNANA
02:00 12.0 8.4 78 0.0 27 3   100.90     LegendNANA
03:00 12.7 7.8 72 0.0 32 4   100.92     LegendNANA
04:00 11.7 7.9 77 0.0 33 2   100.95     LegendNANA
05:00 10.8 8.7 87 0.0   0   100.99     LegendNANA
06:00 11.5 8.4 81 0.0 31 3   101.02     LegendNANA
07:00 12.2 9.1 81 0.0 34 3   101.04     LegendNANA
08:00 14.6 9.4 71 0.0 34 7   101.06     LegendNANA
09:00 14.9 9.7 71 0.0 35 13   101.07     LegendNANA
10:00 16.5 8.5 59 0.0 35 11   101.04     LegendNANA
11:00 16.8 8.5 58 0.0 1 10   101.03     LegendNANA
12:00 17.8 8.0 53 0.0 36 10   101.01     LegendNANA
13:00 17.8 7.4 50 0.0 3 5   100.97     LegendNANA
14:00 18.6 5.7 43 0.0 4 3   100.94     LegendNANA
15:00 16.5 7.8 56 0.0 16 3   100.92     LegendNANA
16:00 15.8 8.7 63 0.0 23 6   100.92     LegendNANA
17:00 15.7 7.9 60 0.0 22 3   100.90     LegendNANA
18:00 14.8 7.3 61 0.0 22 4   100.88     LegendNANA
19:00 12.3 7.6 73 0.0 22 3   100.87     LegendNANA
20:00 12.7 7.1 68 0.0 24 5   100.86     LegendNANA
21:00 12.5 7.4 71 0.0 24 5   100.85     LegendNANA
22:00 13.8 6.2 60 0.0 25 5   100.84     LegendNANA
23:00 13.8 6.1 59 0.0 24 4   100.87     LegendNANA

Notes on Data Quality.

Legend

  • E = Estimated
  • M = Missing
  • NA = Not Available*
  • [empty] = Indicates an unobserved value
Date modified: